This is the latest recevied weather packets stored in our database for station/object W4ZHA. If no packets are shown the sender has not sent any weather packets the latest 10 day(s).
| Time | Temp. | Humidity | Pressure | Rain* | Wind** | Luminosity | Snow |
|---|---|---|---|---|---|---|---|
| 1777928994 | 27.22° C | 45% | 1012.7 hPa | 0 mm | - | 324 W/m² | - |
| 1777928690 | 26.11° C | 45% | 1013 hPa | 0 mm | - | 369 W/m² | - |
| 1777928387 | 25.56° C | 45% | 1013 hPa | 0 mm | - | 373 W/m² | - |
| 1777928085 | 25.56° C | 45% | 1013 hPa | 0 mm | - | 367 W/m² | - |
| 1777927783 | 26.67° C | 45% | 1013 hPa | 0 mm | - | 436 W/m² | - |
| 1777927481 | 26.67° C | 45% | 1013 hPa | 0 mm | - | 405 W/m² | - |
| 1777927180 | 26.11° C | 45% | 1013.4 hPa | 0 mm | - | 446 W/m² | - |
| 1777926877 | 26.67° C | 45% | 1013 hPa | 0 mm | - | 488 W/m² | - |
| 1777926573 | 26.67° C | 45% | 1013.4 hPa | 0 mm | - | 498 W/m² | - |
| 1777926270 | 26.67° C | 45% | 1013.4 hPa | 0 mm | - | 400 W/m² | - |
| 1777925966 | 26.67° C | 45% | 1013.4 hPa | 0 mm | - | 467 W/m² | - |
| 1777925664 | 25.56° C | 45% | 1013.8 hPa | 0 mm | - | 461 W/m² | - |
| 1777925361 | 25.56° C | 45% | 1013.4 hPa | 0 mm | - | 279 W/m² | - |
| 1777925058 | 25.56° C | 45% | 1013.8 hPa | 0 mm | - | 445 W/m² | - |
| 1777924755 | 25.56° C | 45% | 1013.8 hPa | 0 mm | - | 434 W/m² | - |
| 1777924450 | 25.56° C | 45% | 1013.8 hPa | 0 mm | - | 456 W/m² | - |
| 1777924147 | 26.67° C | 45% | 1013.8 hPa | 0 mm | - | 429 W/m² | - |
| 1777923843 | 26.67° C | 45% | 1013.8 hPa | 0 mm | - | 425 W/m² | - |
| 1777923539 | 26.67° C | 45% | 1013.8 hPa | 0 mm | - | 456 W/m² | - |
| 1777923236 | 25.56° C | 45% | 1014.4 hPa | 0 mm | - | 450 W/m² | - |
| 1777922935 | 25.56° C | 45% | 1014.1 hPa | 0 mm | - | 468 W/m² | - |
| 1777922632 | 26.67° C | 45% | 1014.4 hPa | 0 mm | - | 410 W/m² | - |
| 1777922330 | 25.56° C | 45% | 1014.4 hPa | 0 mm | - | 431 W/m² | - |
| 1777922028 | 26.11° C | 45% | 1014.4 hPa | 0 mm | - | 507 W/m² | - |
| 1777921723 | 25.56° C | 45% | 1014.4 hPa | 0 mm | - | 433 W/m² | - |
* Rain latest hour (hover to see other rain measurements)
** Current wind speed in m/s (hover to see current wind gust speed)